BLOCK DM-SL R/B, 28900

Orbit data source: Space-Track

BLOCK DM-SL R/B, 28900 is space debris in HEO originally from a launch on Tue, 08 Nov 2005 UTC launched from the Sea Launch (SEAL). Debris objects in space refer to the collection of defunct objects orbiting the Earth. Examples of debris include non-operational satellites, rocket bodies, and fragments generated from explosions, collisions, or faulty payload assembly.

Loading next visibility...
Identifier
28900, 2005-044B
Orbit
HEO
Country
Flag of USUS / SEAL
Related business
Manufacturer
RKKE
Mission
Spacecraft
Bus & Motor
BLOK DM2, 11D58M
Mass
~3,070 kg wet, ~3,070 kg dry
Launch date (UTC)
2005-11-08 (21 years ago)
Launch vehicle
Unknown
Launch site
Sea Launch (SEAL)
Object type
Payload
Rocket body
Debris
Shape & HBR
Cyl, 3.1 m
Radar Cross Section
23.684 m², Large (>1 m²)

Expand to show TLE details & history
Last TLE update: 1 week ago

TLE from 1 week ago
0 BLOCK DM-SL R/B
1 28900U 05044B   26154.95258943  .00001323  00000-0  71805-3 0  9998
2 28900   2.8515 107.9218 6945066  45.4327 353.3739  2.69097946184201
Epoch: 2026-06-03T22:51Z
TLE epoch observation values (Epoch: 2026-06-03T22:51:43.726Z)
Latitude
0.00001°
Longitude
-127.9745°
Altitude
1,262.48 km
Speed
9.277 km/s
True Right ascension
07h 09m 26s
True Declination
0° 00' 00"
Sunlit
Object was in daylight at epoch
Visualization orbit readout
Latitude
Unknown
Longitude
Unknown
Altitude
Unknown
Speed
Unknown
Apparent Right ascension
Unknown
Apparent Declination
Unknown
Sunlit
N/A
Visualization observer readout
Local Sidereal Time
14:21:55
Azimuth
Unknown
Elevation
Unknown
Doppler factor
Unknown
Orbital elements
Apogee altitude
30,628.457 km
Perigee altitude
293.581 km
Semi-major axis
21,839.156 km
Eccentricity
0.69451
Inclination
2.8515°
RAAN
107.9218°
Arg. of periapsis
45.4327°
True anomaly
313.50094°
Mean anomaly
353.3739°
Eccentric anomaly
339.32376°
Mean motion
0.6725 °/min
Orbital period
535.32 mins
BSTAR
0.00071805
Loading maneuver chart data...
Computing Atmospheric mass density...
Loading historical data...
Loading historical data...
Loading historical data...
Loading historical data...
Loading historical data...
Loading historical data...
Loading historical data...
Other satellites on launch #44 in the year 2005 (2005-11-08 UTC)

Documentation

Showing up to 5 results
|